This is the latest recevied weather packets stored in our database for station/object N2VSB-13. If no packets are shown the sender has not sent any weather packets the latest 10 day(s).
| Time | Temp. | Humidity | Pressure | Rain* | Wind** | Luminosity | Snow |
|---|---|---|---|---|---|---|---|
| 1777967120 | 16.11° C | 55% | 1006.6 hPa | 0 mm | - | 0 W/m² | - |
| 1777965318 | 16.11° C | 55% | 1006.6 hPa | 0 mm | - | 0 W/m² | - |
| 1777957518 | 17.22° C | 52% | 1006.9 hPa | 0 mm | - | 0 W/m² | - |
| 1777955118 | 17.22° C | 50% | 1006.8 hPa | 0 mm | - | 0 W/m² | - |
| 1777952138 | 17.78° C | 48% | 1006.7 hPa | 0 mm | - | 0 W/m² | - |
| 1777949139 | 17.78° C | 48% | 1006.5 hPa | 0 mm | - | 0 W/m² | - |
| 1777944338 | 18.89° C | 43% | 1006.4 hPa | 0 mm | - | 0 W/m² | - |
| 1777929919 | 22.22° C | 33% | 1005.3 hPa | 0 mm | - | 143 W/m² | - |
| 1777929319 | 22.22° C | 34% | 1005.2 hPa | 0 mm | - | 128 W/m² | - |
| 1777925117 | 21.11° C | 37% | 1005.9 hPa | 0 mm | - | 120 W/m² | - |
| 1777924517 | 21.11° C | 37% | 1006.1 hPa | 0 mm | - | 313 W/m² | - |
| 1777923318 | 21.67° C | 37% | 1006.2 hPa | 0 mm | - | 218 W/m² | - |
| 1777921518 | 21.11° C | 37% | 1006.3 hPa | 0 mm | - | 402 W/m² | - |
| 1777917919 | 20.56° C | 38% | 1006.5 hPa | 0 mm | - | 321 W/m² | - |
| 1777916120 | 21.11° C | 39% | 1006.8 hPa | 0 mm | - | 624 W/m² | - |
| 1777906520 | 16.11° C | 48% | 1008.4 hPa | 0 mm | - | 578 W/m² | - |
| 1777904737 | 14.44° C | 52% | 1008.8 hPa | 0 mm | - | 614 W/m² | - |
| 1777901118 | 12.78° C | 56% | 1009 hPa | 0 mm | - | 171 W/m² | - |
| 1777896316 | 10° C | 63% | 1009.5 hPa | 0 mm | - | 89 W/m² | - |
| 1777891518 | 7.78° C | 72% | 1009.7 hPa | 0 mm | - | 43 W/m² | - |
| 1777890918 | 7.78° C | 72% | 1009.7 hPa | 0 mm | - | 26 W/m² | - |
| 1777888539 | 7.22° C | 72% | 1009.5 hPa | 0 mm | - | 4 W/m² | - |
| 1777885519 | 7.22° C | 72% | 1009.5 hPa | 0 mm | - | 0 W/m² | - |
| 1777884320 | 6.67° C | 72% | 1009.5 hPa | 0 mm | - | 0 W/m² | - |
| 1777881317 | 7.78° C | 72% | 1009.9 hPa | 0 mm | - | 0 W/m² | - |
* Rain latest hour (hover to see other rain measurements)
** Current wind speed in m/s (hover to see current wind gust speed)